Nocc Pamplona — LALG5 — position and weather

sailwx.info

Track history (hours):
 
Tides and Currents Weather Stations Pressure Air Temp Water Temp Dewpoint Dewpoint Depression Visibility Wind Speed Wind Dir Waves Ship Positions

Nocc Pamplona

Last reported at 2014-Oct-19 23:32 UTC. Time now 2014-Oct-26 03:00 UTC.
Position N 01°11' E 103°39'.

Length 177 m; draft 9 m.

Type: Cargo ship. MMSI: 257349000.

Date/timePositionNaut miles runAvg speedWind from/ knotsBaromVisibWave heightAir tempDewpointWater temp
2014-Oct-19 23:32N 01°11' E 103°39'9 8.7
2014-Oct-19 22:33N 01°13' E 103°48'2 1.0
2014-Oct-19 20:23N 01°15' E 103°49'0 0.0
2014-Oct-19 19:23N 01°15' E 103°49'0 0.0
2014-Oct-19 18:11N 01°15' E 103°49'0 0.0
2014-Oct-19 16:23N 01°15' E 103°49'0 0.0
2014-Oct-19 14:29N 01°15' E 103°49'0 0.0
2014-Oct-19 08:30N 01°15' E 103°49'4 4.3
2014-Oct-19 07:31N 01°17' E 103°45'0 0.1
2014-Oct-19 06:06N 01°17' E 103°45'0 0.0
2014-Oct-19 05:27N 01°17' E 103°45'0 0.0
2014-Oct-19 03:24N 01°17' E 103°45'0 0.0
2014-Oct-19 02:18N 01°17' E 103°45'0 0.0
2014-Oct-19 01:33N 01°17' E 103°45'5 5.0
2014-Oct-19 00:33N 01°13' E 103°48'8 7.8
2014-Oct-18 23:33N 01°14' E 103°56'1211.0
2014-Oct-18 22:28N 01°17' E 104°08'  
2014-Oct-15 14:33N 08°49' E 122°47'1816.2
2014-Oct-15 13:27N 08°52' E 123°05'1416.2
2014-Oct-15 12:33N 08°56' E 123°20'1615.9
2014-Oct-15 11:33N 08°58' E 123°35'1515.0
2014-Oct-15 10:33N 08°60' E 123°50'  
Track history (hours):
 
Tides and Currents Weather Stations Pressure Air Temp Water Temp Dewpoint Dewpoint Depression Visibility Wind Speed Wind Dir Waves Ship Positions

Nocc Pamplona

Last reported at 2014-Oct-19 23:32 UTC. Time now 2014-Oct-26 03:00 UTC.
Position N 01°11' E 103°39'.

Length 177 m; draft 9 m.

Type: Cargo ship. MMSI: 257349000.

Date/timePositionNaut miles runAvg speedWind from/ knotsBaromVisibWave heightAir tempDewpointWater temp
2014-Oct-19 23:32N 01°11' E 103°39'9 8.7
2014-Oct-19 22:33N 01°13' E 103°48'2 1.0
2014-Oct-19 20:23N 01°15' E 103°49'0 0.0
2014-Oct-19 19:23N 01°15' E 103°49'0 0.0
2014-Oct-19 18:11N 01°15' E 103°49'0 0.0
2014-Oct-19 16:23N 01°15' E 103°49'0 0.0
2014-Oct-19 14:29N 01°15' E 103°49'0 0.0
2014-Oct-19 08:30N 01°15' E 103°49'4 4.3
2014-Oct-19 07:31N 01°17' E 103°45'0 0.1
2014-Oct-19 06:06N 01°17' E 103°45'0 0.0
2014-Oct-19 05:27N 01°17' E 103°45'0 0.0
2014-Oct-19 03:24N 01°17' E 103°45'0 0.0
2014-Oct-19 02:18N 01°17' E 103°45'0 0.0
2014-Oct-19 01:33N 01°17' E 103°45'5 5.0
2014-Oct-19 00:33N 01°13' E 103°48'8 7.8
2014-Oct-18 23:33N 01°14' E 103°56'1211.0
2014-Oct-18 22:28N 01°17' E 104°08'  
2014-Oct-15 14:33N 08°49' E 122°47'1816.2
2014-Oct-15 13:27N 08°52' E 123°05'1416.2
2014-Oct-15 12:33N 08°56' E 123°20'1615.9
2014-Oct-15 11:33N 08°58' E 123°35'1515.0
2014-Oct-15 10:33N 08°60' E 123°50'  

Dump ship's entire track history